Temperature
9 9 9 9 9 9 9 9 10 10 10 10 10 11 11 11 12 12 12 12 12 12 12 12 13 13 13 13 13 13 13 13 13 13 12 13 13 13 13 13 13 13 13
8 9 9 9 9 9 9 9 9 9 9 10 10 10 10 11 11 11 11 11 12 12 12 12 12 12 12 12 12 12 12 12 12 12 12 12 12 12 12 12 12 12 12
8 8 8 8 8 8 8 8 8 9 9 9 9 9 10 10 10 10 11 11 11 11 12 12 12 12 12 12 12 12 12 12 12 12 11 11 11 12 12 12 12 12 12
7 7 7 7 7 8 8 8 8 8 8 9 9 9 9 9 10 10 10 10 10 11 11 11 11 11 11 11 11 12 12 11 11 11 11 11 11 11 11 11 12 12 11
7 7 7 7 7 7 7 7 8 8 8 8 8 8 8 9 9 9 9 10 10 10 10 10 10 11 11 11 11 11 11 11 11 11 11 11 10 10 10 10 11 11 11
7 7 7 7 7 7 7 7 7 7 7 8 8 8 8 8 8 8 9 9 9 10 10 10 10 10 10 10 10 10 11 11 11 10 10 10 10 10 10 10 10 10 11
6 6 6 6 6 6 6 6 7 7 7 7 7 7 8 8 8 8 8 8 9 9 9 9 9 9 10 10 10 10 10 10 10 10 10 10 9 9 9 9 9 9 9
6 6 6 6 6 6 6 6 6 6 6 7 7 7 7 7 8 8 8 8 8 8 8 8 8 9 9 9 9 9 9 9 9 9 9 9 9 9 8 8 8 8 8
6 6 6 6 5 5 5 5 5 6 6 6 6 7 7 7 7 7 7 7 7 8 8 8 8 8 8 8 8 8 8 8 8 8 8 8 8 8 8 8 8 7 7
6 6 6 5 5 5 5 5 5 5 5 6 6 6 6 6 6 6 7 7 7 7 7 7 7 7 8 8 8 8 7 8 8 7 7 7 7 7 7 7 7 7 6
6 6 6 5 5 5 5 5 5 5 5 5 5 6 6 6 6 6 6 6 6 7 7 7 7 7 7 7 7 7 7 7 7 7 7 7 7 7 7 6 6 6 6
6 6 6 5 5 5 5 5 5 5 5 5 5 5 5 5 6 6 6 6 6 6 6 6 6 6 6 6 6 6 6 6 6 6 6 6 6 6 6 6 5 5 5
6 6 6 5 5 5 5 5 5 5 5 5 5 5 5 5 5 5 5 6 6 6 6 6 6 6 6 6 6 6 5 5 5 5 5 5 5 5 5 5 5 4 4
6 6 6 5 5 5 5 5 5 5 4 5 5 5 5 5 5 5 5 5 5 5 5 5 5 5 5 5 5 5 5 5 5 5 5 4 4 4 4 4 4 3 3
6 6 6 5 5 5 5 5 5 5 4 4 4 5 4 4 5 5 5 5 5 5 5 5 5 5 5 4 4 4 4 4 4 4 4 4 4 3 3 3 3 3 2
6 6 6 6 5 5 5 5 5 5 5 5 5 4 4 4 4 5 5 4 5 4 4 4 4 4 4 4 4 3 3 3 3 3 3 3 3 3 2 2 2 2 2
7 7 6 6 5 5 5 5 5 5 4 4 4 4 4 4 4 4 4 4 4 4 4 4 3 3 3 3 3 3 3 3 3 3 2 2 2 2 2 2 2 2 1
7 7 7 6 6 5 5 5 5 5 4 4 4 4 4 4 4 4 4 4 3 3 3 3 3 3 3 3 3 3 3 2 2 2 2 2 2 2 1 1 1 1 1
7 7 7 6 6 5 5 5 5 5 4 4 4 4 4 4 4 3 3 3 3 3 3 3 3 3 2 2 2 2 2 2 2 2 1 1 1 1 0 0 0 1 1
7 7 7 6 6 6 5 5 5 4 4 4 4 4 3 3 3 3 3 2 2 2 2 2 2 2 2 2 2 1 1 1 1 1 1 1 0 0 -0 -0 -0 -0 -0
7 7 6 6 6 5 5 5 5 5 4 4 4 3 3 3 3 2 2 2 2 2 2 2 2 1 1 1 1 0 0 0 0 0 0 -0 -0 -0 -0 -1 -1 -1 -1
7 6 6 6 6 5 5 5 5 4 4 4 3 3 3 3 2 2 2 2 2 2 1 1 1 1 1 0 -0 -0 -0 -0 -0 -1 -1 -1 -1 -1 -1 -1 -1 -2 -2
7 6 6 6 5 5 5 5 5 4 4 3 3 3 3 2 2 2 2 2 2 1 1 1 1 0 0 -0 -0 -1 -1 -1 -1 -1 -1 -2 -2 -2 -2 -2 -2 -2 -2
6 6 6 5 5 5 5 5 4 4 4 3 3 3 2 2 2 2 2 1 1 1 1 0 0 -0 -0 -1 -1 -1 -1 -1 -1 -2 -2 -2 -2 -2 -2 -2 -3 -3 -3
6 6 5 5 5 5 5 4 4 4 3 3 3 3 2 2 2 1 1 1 1 0 -0 -0 -1 -1 -1 -1 -2 -2 -2 -2 -2 -2 -2 -2 -2 -2 -3 -3 -3 -3 -4
6 5 5 5 5 5 4 4 4 3 3 3 3 2 2 2 1 1 1 0 0 -0 -1 -1 -1 -1 -2 -2 -2 -2 -2 -3 -3 -3 -3 -3 -3 -3 -4 -4 -4 -4 -4
Wind_Speed
4 4 5 5 5 5 5 6 6 6 4 3 2 3 3 3 3 3 4 5 5 6 5 5 5 6 7 7 7 5 6 5 3 2 2 2 3 4 4 4 4 5 7
6 6 5 5 5 5 6 6 6 6 5 4 3 3 3 3 3 2 2 3 4 4 4 5 5 6 6 7 7 5 4 3 4 3 2 2 3 4 5 4 5 5 4
4 6 6 6 5 6 6 6 6 6 5 4 2 2 1 1 1 2 2 2 3 2 3 3 4 5 5 6 6 7 7 5 5 4 4 3 4 3 2 4 4 4 4
3 4 5 6 6 6 6 6 6 5 5 4 2 2 2 2 2 2 1 2 2 2 1 1 2 3 3 4 4 5 5 5 5 3 2 2 3 3 2 2 3 4 5
3 4 5 6 6 6 6 6 5 5 4 4 2 2 2 2 1 1 1 1 2 2 2 1 1 2 2 2 2 3 3 4 5 4 2 2 2 2 3 3 3 3 4
3 4 5 5 6 6 6 5 5 4 4 3 2 1 1 1 1 0 1 1 1 1 1 1 0 1 2 2 2 3 3 3 3 3 3 3 2 3 3 4 3 4 4
3 4 5 5 7 7 6 6 5 4 4 3 2 1 1 0 1 1 1 1 1 2 2 1 0 1 2 2 2 2 2 2 3 3 3 2 2 2 2 3 3 4 3
3 4 4 4 5 6 6 6 5 4 4 3 2 2 1 1 0 0 1 1 1 1 1 1 0 0 1 1 2 2 2 2 2 2 2 2 2 1 2 3 3 4 4
4 4 4 4 4 5 5 5 5 5 4 3 2 2 2 1 1 1 1 1 1 1 1 1 0 1 1 1 2 1 1 2 2 2 2 2 2 1 1 2 2 4 5
4 4 3 3 4 4 4 4 4 4 3 3 2 2 2 2 2 1 1 1 1 0 1 1 1 1 1 1 2 1 1 1 1 1 2 2 2 2 2 2 2 3 4
5 4 3 3 3 3 3 4 4 4 4 3 3 3 3 3 2 2 1 1 1 1 1 1 1 2 1 1 1 1 1 1 1 2 2 2 2 2 2 2 2 3 3
4 3 3 2 2 3 3 3 4 4 3 3 3 3 2 2 2 2 2 1 1 2 1 1 2 2 2 1 1 0 0 0 1 2 2 3 2 3 2 2 3 3 4
4 3 2 2 2 2 2 3 3 3 3 2 2 3 3 3 2 2 2 2 2 2 2 2 1 1 1 1 1 0 0 1 2 2 2 3 2 3 3 3 3 3 4
5 4 3 3 3 2 2 2 2 2 2 2 2 2 2 2 2 2 3 3 2 2 2 2 1 1 1 1 1 1 1 1 1 2 2 2 3 4 4 4 4 4 4
6 5 4 4 3 2 2 1 2 2 1 1 2 1 2 2 2 3 2 2 2 2 1 2 2 2 1 1 1 1 1 1 2 2 2 2 3 4 4 4 4 4 4
7 6 5 4 4 3 2 1 1 1 1 1 0 1 1 2 2 2 2 2 2 2 2 2 2 2 2 3 3 1 1 1 1 2 2 3 3 5 6 6 6 5 5
7 7 6 6 5 4 3 2 2 1 0 0 1 1 1 1 1 2 2 2 2 2 3 2 2 2 3 4 4 4 2 1 1 2 2 3 3 5 4 5 6 6 8
7 7 6 6 5 4 3 2 1 1 1 0 1 1 0 1 1 2 2 2 2 2 2 2 2 3 4 5 5 5 3 2 2 2 2 3 4 4 5 4 4 4 4
7 7 6 6 5 4 4 3 2 1 1 0 1 1 0 1 1 1 1 1 1 2 2 2 2 3 4 6 6 5 2 2 2 2 3 3 4 7 7 4 4 4 4
5 5 5 4 5 5 4 4 3 2 2 2 2 1 0 1 1 0 0 1 1 1 2 3 3 3 3 5 6 6 2 2 2 3 3 5 6 8 7 3 3 5 5
5 5 5 5 6 5 5 5 4 5 4 3 2 1 1 1 1 0 1 1 1 2 2 2 2 2 3 4 5 5 3 2 2 3 3 4 8 9 8 5 3 6 6
5 6 5 5 5 6 7 6 6 5 3 2 2 2 1 1 1 1 1 1 2 2 1 1 2 2 3 4 4 5 5 4 2 3 3 4 8 8 7 5 6 8 7
6 6 6 6 5 6 7 8 7 5 4 3 3 2 2 1 1 2 1 1 1 1 0 0 1 2 2 3 4 5 5 6 3 2 5 6 7 6 5 6 8 6 4
6 6 6 6 6 7 7 8 6 5 5 5 4 3 3 2 2 1 1 2 2 1 1 1 1 1 2 2 2 2 3 4 3 3 4 6 6 5 5 6 5 4 4
6 6 7 8 8 7 7 7 6 6 6 6 5 4 4 3 3 2 2 3 3 3 3 2 2 1 2 3 4 3 2 2 2 3 2 3 3 4 4 4 4 4 4
6 6 7 8 7 7 7 7 6 7 7 6 5 5 4 3 3 2 1 2 2 3 3 2 2 2 4 4 4 4 4 4 4 3 2 3 3 3 4 4 5 5 5
Wind_Direction
308 331 334 338 340 336 325 313 308 302 300 288 274 262 261 262 264 261 262 253 242 233 220 221 213 205 204 204 201 200 202 207 183 175 233 261 242 228 222 214 210 214 216
331 339 341 345 342 333 327 319 311 306 300 281 258 241 240 244 248 264 285 273 255 240 230 217 212 206 206 203 199 195 198 200 181 169 167 237 269 249 231 219 219 222 212
323 331 336 334 334 329 323 316 309 307 304 297 276 268 261 285 283 294 303 300 288 269 247 230 215 206 204 206 202 197 199 200 196 180 173 181 220 244 250 225 221 218 217
334 333 336 333 327 319 319 311 310 311 312 306 274 235 227 236 251 261 279 312 322 323 311 252 218 210 206 203 203 200 201 190 195 201 205 192 170 192 245 265 232 225 225
324 328 326 319 319 322 321 314 313 316 318 317 293 251 243 235 246 280 320 323 322 339 338 331 198 207 207 195 191 200 193 196 194 191 192 207 212 204 205 244 252 249 236
317 323 321 325 330 335 332 329 326 323 327 328 325 299 245 217 186 282 290 313 308 313 336 19 132 202 196 192 190 188 184 195 191 190 192 190 193 204 211 231 242 249 248
302 313 321 329 335 339 339 340 340 332 335 342 342 343 303 191 181 231 259 288 308 314 326 325 304 241 197 182 174 171 176 190 191 197 214 222 226 211 211 227 245 251 259
288 297 307 315 324 331 336 342 343 334 339 345 343 358 347 359 14 313 267 269 276 285 296 289 249 179 154 159 158 168 181 177 193 203 210 225 242 236 226 216 227 257 259
273 287 301 313 319 330 337 338 341 340 341 343 347 2 6 23 2 341 317 288 291 307 318 304 45 73 116 137 146 153 174 165 184 204 210 223 240 246 249 239 221 225 252
269 276 291 309 318 327 336 345 349 347 348 357 360 19 16 18 12 25 28 29 10 10 24 25 43 49 61 91 121 137 141 146 195 208 217 233 244 245 246 243 247 233 239
259 270 283 299 312 328 338 345 351 354 0 5 18 28 17 20 23 25 24 32 36 46 48 35 44 41 41 61 92 113 121 172 232 239 231 246 251 247 249 246 246 246 242
250 257 271 298 319 327 333 341 347 355 360 10 27 30 30 36 39 24 15 28 37 37 38 42 53 41 23 38 62 38 47 209 254 261 250 256 265 260 258 252 250 252 251
245 250 259 275 291 309 326 338 344 348 355 23 42 35 32 38 36 22 17 24 33 36 37 51 59 43 23 22 27 9 322 279 260 258 256 262 259 265 268 260 256 261 272
232 235 245 258 269 287 308 321 334 343 3 42 55 45 29 30 30 29 29 29 34 35 30 35 48 47 34 23 1 356 326 299 288 287 282 280 261 259 264 264 260 263 268
234 231 232 239 250 266 288 305 323 337 8 50 52 23 14 30 36 34 28 27 33 34 30 45 36 27 23 13 13 349 325 299 304 318 311 303 300 295 281 276 265 263 263
233 232 226 220 225 233 244 261 285 307 22 76 26 355 32 41 34 23 25 30 29 27 36 40 31 21 9 20 23 14 338 314 307 308 317 320 316 314 312 305 300 289 275
228 223 218 214 216 216 214 222 244 265 104 80 359 2 37 46 23 32 43 41 38 42 40 34 38 30 15 22 19 17 23 0 329 311 311 319 321 321 302 305 312 304 300
221 217 211 211 211 203 196 197 184 160 154 137 349 352 59 58 35 50 55 35 36 51 45 34 28 31 22 28 34 33 42 32 358 332 315 305 305 309 309 304 306 305 309
211 209 206 201 195 194 188 169 165 161 160 236 293 307 292 113 63 42 22 25 44 43 37 36 42 39 15 17 23 29 40 26 1 342 336 325 311 321 322 313 303 305 303
200 199 193 185 190 196 174 167 184 186 213 226 240 258 198 148 155 184 3 34 62 51 46 40 34 33 17 10 15 19 34 18 355 350 342 337 334 330 327 314 301 298 301
201 188 183 192 204 191 171 184 199 216 223 210 197 188 182 174 173 138 69 77 76 66 53 39 18 17 13 11 11 9 16 355 341 335 330 327 333 337 340 339 316 309 315
202 191 190 207 207 187 181 196 216 223 204 185 184 196 197 181 146 140 117 101 102 90 57 35 9 358 352 359 360 4 2 351 338 316 312 319 333 340 345 345 340 335 331
207 199 198 209 213 198 191 205 220 203 184 181 194 204 198 189 166 157 155 120 117 130 159 108 332 335 339 337 348 353 350 348 347 319 327 335 343 350 351 351 348 344 333
213 204 199 210 222 214 206 214 210 186 180 191 201 198 193 197 186 173 172 170 185 195 209 221 269 303 327 322 321 322 331 344 347 343 346 351 358 7 2 357 356 352 341
217 205 206 215 224 218 215 214 200 182 188 196 200 199 197 193 194 196 203 204 213 202 202 215 220 247 282 294 310 327 321 322 329 348 355 358 355 358 356 352 348 345 341
217 214 216 221 224 217 218 213 197 187 190 200 204 204 200 196 192 193 234 248 229 238 234 230 229 257 278 298 306 313 323 337 352 8 351 343 341 341 342 341 338 337 335
Height
1496 1494 1492 1491 1489 1487 1486 1485 1484 1483 1483 1482 1481 1481 1482 1483 1484 1485 1486 1488 1489 1490 1492 1492 1494 1496 1497 1499 1501 1503 1505 1507 1509 1511 1511 1512 1513 1514 1514 1515 1516 1517 1518
1493 1491 1489 1488 1486 1484 1483 1481 1480 1479 1478 1477 1477 1477 1478 1478 1479 1481 1482 1483 1484 1485 1487 1488 1489 1490 1492 1493 1496 1498 1500 1501 1504 1505 1506 1507 1508 1508 1509 1510 1511 1512 1512
1491 1488 1487 1485 1483 1481 1480 1478 1477 1475 1474 1473 1473 1473 1474 1474 1475 1476 1477 1478 1480 1481 1482 1483 1484 1485 1487 1488 1490 1492 1494 1496 1498 1499 1501 1501 1501 1502 1503 1504 1505 1506 1507
1489 1487 1485 1483 1481 1479 1477 1475 1473 1472 1471 1470 1469 1469 1469 1470 1471 1472 1473 1474 1475 1476 1477 1478 1479 1480 1482 1483 1484 1487 1489 1491 1492 1494 1495 1497 1497 1498 1497 1498 1499 1501 1501
1488 1486 1483 1481 1478 1476 1473 1471 1470 1468 1468 1467 1466 1466 1466 1467 1467 1468 1469 1470 1471 1472 1472 1473 1474 1475 1477 1478 1480 1482 1484 1485 1487 1488 1490 1491 1492 1492 1493 1492 1493 1494 1495
1486 1484 1482 1479 1476 1473 1470 1468 1466 1465 1465 1464 1463 1463 1463 1463 1464 1465 1466 1466 1467 1468 1468 1469 1469 1470 1472 1473 1475 1477 1478 1480 1481 1483 1484 1485 1486 1487 1488 1487 1487 1487 1488
1484 1482 1479 1477 1474 1471 1468 1466 1464 1463 1462 1461 1461 1461 1460 1461 1461 1462 1462 1463 1463 1464 1464 1465 1465 1466 1467 1469 1470 1472 1473 1474 1476 1477 1479 1480 1481 1482 1482 1483 1482 1482 1482
1483 1480 1478 1475 1473 1470 1467 1464 1462 1461 1460 1459 1458 1458 1458 1457 1458 1459 1459 1460 1460 1460 1461 1461 1461 1462 1463 1464 1466 1467 1468 1470 1471 1472 1474 1474 1475 1476 1477 1477 1478 1476 1476
1481 1479 1477 1474 1472 1469 1466 1463 1461 1459 1457 1457 1456 1456 1455 1455 1456 1456 1457 1457 1457 1458 1458 1458 1458 1459 1459 1460 1461 1462 1464 1465 1466 1467 1469 1469 1470 1471 1471 1472 1473 1473 1470
1479 1477 1475 1473 1470 1468 1465 1463 1460 1458 1456 1455 1454 1453 1453 1453 1454 1454 1454 1454 1455 1455 1455 1455 1455 1456 1456 1457 1458 1459 1460 1461 1462 1463 1464 1464 1465 1466 1466 1466 1467 1466 1466
1477 1476 1474 1472 1469 1467 1464 1462 1460 1458 1456 1454 1453 1453 1452 1452 1452 1452 1452 1452 1452 1452 1452 1452 1453 1453 1454 1454 1455 1455 1456 1457 1457 1458 1458 1459 1460 1460 1460 1460 1460 1461 1460
1476 1474 1473 1471 1468 1466 1464 1461 1459 1457 1455 1454 1453 1452 1452 1452 1452 1451 1451 1451 1451 1451 1451 1450 1450 1450 1451 1451 1451 1451 1452 1453 1453 1454 1454 1454 1455 1455 1455 1454 1454 1454 1454
1474 1473 1471 1469 1467 1465 1463 1461 1459 1457 1456 1454 1453 1452 1452 1451 1451 1450 1450 1449 1449 1449 1449 1449 1448 1448 1448 1448 1448 1449 1449 1449 1449 1449 1449 1449 1449 1449 1449 1449 1449 1449 1448
1472 1471 1469 1468 1466 1464 1462 1461 1459 1457 1456 1454 1453 1452 1451 1450 1450 1449 1449 1448 1447 1447 1447 1446 1446 1446 1446 1445 1445 1445 1446 1446 1445 1445 1445 1444 1444 1444 1444 1444 1443 1443 1442
1469 1468 1467 1466 1465 1463 1462 1460 1458 1457 1455 1454 1453 1452 1451 1450 1449 1448 1448 1447 1446 1445 1445 1444 1444 1443 1443 1443 1442 1442 1442 1442 1442 1441 1441 1440 1440 1440 1440 1439 1438 1437 1436
1466 1465 1465 1464 1463 1462 1460 1459 1457 1456 1455 1453 1452 1451 1450 1449 1449 1448 1447 1446 1445 1444 1444 1443 1442 1442 1441 1440 1440 1440 1439 1439 1438 1437 1437 1436 1436 1435 1435 1434 1433 1432 1431
1462 1462 1462 1461 1461 1460 1459 1457 1456 1455 1454 1453 1451 1450 1449 1448 1448 1447 1446 1445 1444 1443 1442 1441 1441 1440 1439 1438 1437 1437 1436 1435 1435 1434 1433 1432 1432 1431 1430 1428 1428 1427 1426
1459 1459 1459 1459 1459 1458 1457 1456 1455 1454 1452 1451 1450 1449 1448 1447 1446 1445 1445 1444 1443 1442 1441 1440 1439 1438 1436 1436 1435 1434 1433 1432 1431 1430 1429 1428 1427 1426 1425 1424 1422 1422 1421
1456 1456 1456 1456 1456 1456 1455 1454 1453 1452 1451 1450 1449 1448 1447 1446 1445 1444 1443 1442 1441 1440 1439 1438 1437 1436 1435 1434 1432 1431 1430 1429 1428 1427 1426 1425 1423 1422 1421 1420 1418 1416 1415
1453 1453 1453 1453 1453 1453 1453 1452 1451 1450 1449 1449 1448 1447 1446 1445 1444 1443 1442 1441 1440 1439 1438 1437 1435 1434 1433 1432 1430 1429 1428 1426 1425 1424 1423 1422 1420 1419 1417 1415 1414 1412 1410
1449 1450 1450 1450 1450 1450 1450 1449 1449 1448 1447 1447 1446 1445 1445 1444 1443 1442 1441 1440 1439 1438 1436 1435 1434 1433 1431 1430 1429 1428 1426 1425 1423 1421 1420 1418 1417 1415 1413 1412 1410 1408 1406
1446 1446 1446 1446 1447 1447 1446 1446 1446 1446 1446 1445 1444 1443 1443 1442 1441 1440 1439 1438 1437 1436 1435 1434 1432 1431 1430 1429 1427 1426 1425 1423 1421 1419 1417 1416 1414 1412 1410 1408 1406 1405 1403
1442 1442 1442 1442 1443 1443 1443 1443 1443 1443 1443 1442 1442 1441 1441 1440 1439 1438 1437 1436 1435 1434 1433 1432 1431 1430 1429 1427 1426 1424 1423 1421 1419 1417 1415 1413 1411 1409 1407 1405 1403 1401 1399
1438 1438 1438 1438 1438 1439 1439 1439 1439 1439 1439 1439 1439 1438 1438 1437 1436 1436 1435 1434 1433 1432 1431 1430 1429 1428 1427 1425 1424 1422 1420 1418 1416 1414 1412 1410 1408 1406 1404 1402 1400 1398 1396
1433 1433 1433 1433 1433 1434 1434 1435 1435 1435 1435 1435 1435 1434 1434 1434 1433 1433 1432 1431 1431 1430 1429 1428 1427 1426 1424 1423 1422 1420 1418 1416 1414 1412 1410 1407 1405 1403 1401 1399 1397 1395 1393
1428 1428 1428 1428 1428 1429 1429 1430 1430 1430 1430 1430 1430 1430 1430 1430 1430 1429 1429 1428 1428 1427 1426 1426 1425 1423 1422 1421 1419 1418 1416 1414 1412 1410 1407 1405 1402 1400 1398 1396 1394 1392 1390